Starlink 5632

operational
NORAD ID: 55400 Int'l Des: 2023-014 Owner: SPXS Country: US Constellation: starlink
LEOCIRCULAR

关于 Starlink 5632

正在加载描述...

实时位置

正在加载3D地球...

即将过境

高度历史

Altitude vs Time

uPlot chart will show altitude changes over time

两行轨道根数

1 55400U 23014K 25347.96020198 .00001808 00000-0 15929-3 0 9996
2 55400 70.0001 280.6156 0003180 270.0621 90.0173 14.98330544159211
Epoch: Dec 13, 2025 • Age: 15 hours

当前状态

高度 575.5 km
速度 7.58 km/s
星下点 25.13°N, 153.56°E
发射日期 Jan 31, 2023
运行时间 2.8 years
类型 internet

技术详情

分类 Payload
质量 305.00 kg
干质量 290.00 kg
总质量 305.00 kg
长度 0.20 m
直径 2.80 m
跨度 9.00 m
形状 Box + pan
制造商 SPXS
平台类型 Starlink
阶段状态 In Orbit
所有者/国家 SPXS/US

大型星座

Loading constellations...